Temp
19 19 19 19 19 19 19 19 19 19 19 19 19 19 19 19 19 19 19 19 19 19 19 20 20 20 20 20 20 20 20 20 20 21 21 21 21 21 21 20 20 20 20 20 20 19 18 18 17 17 17 17 17 17 16 17 17 17 16 16 16 16 16 15 14 14 14 14 14 14 14 14 14 14 14 15 15 15 15 15 15 15 15 15 15
19 19 19 19 19 18 19 19 19 19 19 19 19 19 19 19 19 19 19 19 19 19 19 19 19 19 19 19 20 20 20 20 20 20 20 20 20 20 20 20 20 20 20 20 20 19 19 18 18 17 17 17 17 16 16 16 16 17 16 16 16 16 16 16 15 14 14 14 14 14 14 14 14 14 14 14 15 15 15 15 15 15 15 15 15
19 19 19 18 18 18 19 19 19 19 19 19 19 19 18 19 19 19 19 19 19 19 19 19 19 19 19 19 19 19 20 20 20 20 20 20 20 20 20 20 20 20 19 19 19 19 19 19 18 18 17 17 17 17 16 16 16 16 16 16 16 16 16 16 16 15 14 14 14 14 14 14 14 14 14 14 14 15 15 15 15 15 15 15 15
19 19 18 18 19 19 19 19 19 19 19 19 19 18 18 18 19 19 19 19 19 19 19 19 19 19 19 19 19 19 19 19 19 19 19 20 20 20 19 19 19 19 19 19 19 19 19 19 18 18 17 17 17 17 17 16 16 16 16 16 16 16 16 16 16 15 14 14 14 14 14 14 14 14 14 14 14 15 15 15 15 15 15 15 15
19 19 19 19 19 19 19 19 19 19 19 19 18 18 18 19 19 19 19 19 19 19 19 19 19 19 19 19 19 19 19 19 19 19 19 19 19 19 19 19 19 19 19 19 18 18 18 18 18 18 17 17 17 17 17 16 16 16 16 16 16 15 16 16 16 15 15 14 14 14 14 14 14 14 14 14 14 14 15 15 15 15 15 15 15
19 19 19 19 19 19 19 19 19 19 19 18 18 18 19 19 19 19 19 19 19 19 19 19 19 19 19 19 19 19 19 19 19 19 19 19 19 19 19 19 19 19 19 18 18 18 18 18 18 18 17 17 16 16 16 16 16 16 16 16 15 15 15 16 16 15 15 14 14 14 14 14 14 14 14 14 14 14 14 15 15 15 15 15 15
19 19 19 19 19 19 19 19 19 19 18 18 18 18 18 19 19 19 19 19 19 19 19 19 19 19 19 19 19 19 19 19 19 19 19 19 19 19 19 19 19 18 18 18 18 18 18 18 17 17 17 17 17 17 16 16 16 16 16 16 16 15 15 15 16 15 15 15 14 14 14 14 14 14 14 14 14 14 14 15 15 15 15 15 15
19 19 19 19 19 19 19 19 18 18 18 18 18 18 18 18 18 19 18 18 18 19 19 19 19 19 19 19 19 19 19 19 19 20 19 19 19 19 19 18 18 18 18 17 17 17 17 17 17 17 17 17 17 17 16 16 16 16 16 16 16 16 15 15 15 15 15 15 15 15 14 14 14 14 14 14 14 14 14 14 15 15 15 15 15
19 19 19 19 19 19 19 18 18 18 18 18 18 18 18 18 18 18 18 18 18 18 19 19 19 19 19 19 19 19 19 19 19 19 19 19 19 19 19 18 18 17 17 17 17 17 17 17 17 16 16 16 16 16 16 16 16 16 16 16 16 16 16 15 15 15 15 15 15 15 15 14 14 14 14 14 14 14 14 14 14 14 15 15 15
18 18 18 18 18 18 18 18 18 18 18 18 18 18 18 18 18 18 18 17 18 18 18 18 19 19 19 19 19 19 19 19 19 19 19 19 19 18 18 18 17 17 17 17 17 16 16 16 16 16 16 16 16 16 16 16 16 16 16 16 16 16 16 16 15 15 15 15 15 15 15 14 14 14 14 14 14 14 14 14 14 14 14 15 15
18 18 18 18 18 18 18 18 18 18 18 18 18 18 18 18 18 17 17 17 17 17 18 18 18 19 19 19 19 19 19 18 18 18 18 18 18 18 17 17 17 17 17 17 16 16 16 16 16 16 16 16 16 16 16 16 16 16 16 16 16 16 16 16 16 16 15 15 15 15 15 14 14 14 14 14 14 14 14 15 14 14 14 14 15
18 18 18 18 18 18 18 17 17 18 18 17 17 17 17 17 17 17 17 17 17 17 17 18 18 19 19 19 19 19 18 18 18 18 17 17 17 17 17 17 17 17 16 16 16 16 16 16 16 16 16 16 16 16 15 15 15 15 16 15 15 15 15 16 16 16 15 15 15 15 15 15 14 14 14 14 14 14 14 14 14 14 14 14 15
17 17 17 17 17 17 17 17 17 17 17 17 17 17 17 17 17 17 17 17 17 16 17 18 18 18 18 19 19 18 18 18 18 18 17 17 17 17 17 17 17 16 16 16 16 16 16 15 15 15 15 15 15 15 14 14 14 15 15 15 15 15 15 15 16 16 15 15 15 15 15 15 15 14 14 14 14 14 14 14 14 14 14 14 14
17 17 17 17 17 17 17 17 17 17 16 16 16 16 16 16 16 16 16 16 16 15 16 17 17 16 15 16 18 18 18 18 19 18 16 16 16 16 16 16 16 15 15 16 16 16 15 14 14 14 14 14 14 14 13 13 13 13 14 14 14 14 14 14 15 15 15 15 15 15 15 15 14 14 14 14 14 14 14 14 14 14 14 14 14
17 17 17 17 17 17 16 16 16 16 16 16 16 16 16 16 16 16 16 16 15 15 15 15 16 16 15 15 16 16 17 17 17 17 16 15 16 15 15 15 15 15 15 15 15 15 14 13 13 13 13 13 13 13 13 13 13 13 13 14 14 14 14 14 14 15 15 15 15 15 15 15 14 15 15 15 15 15 14 14 14 14 14 14 14
17 17 17 17 17 16 16 16 16 16 16 16 15 15 15 15 15 16 16 15 14 14 14 14 15 15 14 15 14 14 15 14 14 15 15 15 15 15 15 14 14 14 14 14 14 14 13 13 12 12 12 12 12 13 13 13 13 13 14 14 14 14 14 14 14 15 14 14 15 15 15 15 15 15 15 15 15 14 14 14 14 14 14 14 14
16 16 16 16 16 16 16 16 15 15 15 15 14 14 14 14 14 15 15 14 14 14 14 14 13 13 13 13 13 14 14 13 13 15 15 14 14 14 14 13 13 12 12 13 13 13 12 12 11 11 11 11 11 12 12 12 12 13 13 13 13 13 13 13 13 14 14 14 14 15 15 15 15 15 15 15 15 14 14 14 14 14 14 14 14
16 15 15 15 15 15 15 15 15 14 14 14 14 14 14 14 14 14 14 14 14 13 13 13 13 13 13 12 12 12 12 12 12 13 14 13 13 13 13 12 12 11 11 11 12 12 11 11 11 10 10 11 11 11 11 11 12 12 11 11 11 12 12 13 13 14 14 13 14 15 15 14 15 15 15 15 15 15 15 14 14 14 14 14 14
15 15 15 15 15 14 14 14 14 14 14 14 13 13 13 13 13 13 13 13 13 13 12 12 12 12 12 12 12 11 11 11 10 11 12 12 12 12 12 11 10 11 10 10 11 11 10 10 10 9 9 9 10 10 10 10 11 11 11 11 10 11 11 12 12 13 14 13 13 14 14 14 14 15 15 15 15 15 15 14 15 14 14 14 14
14 14 14 14 14 14 14 14 14 13 13 13 13 13 13 12 13 13 12 12 12 12 11 12 11 11 11 12 11 11 11 10 10 10 10 10 10 10 10 9 9 10 10 10 10 10 9 9 9 9 8 8 9 9 9 9 9 9 9 9 9 10 10 11 12 13 13 13 12 13 14 14 14 14 14 15 15 15 15 15 15 14 14 14 14
13 14 13 13 13 13 13 13 13 13 13 13 12 12 12 12 12 12 12 11 11 11 11 10 10 10 10 11 11 10 10 10 9 9 9 9 9 8 8 8 8 9 9 9 9 9 9 9 9 8 7 7 7 7 8 8 8 7 7 7 8 9 9 10 11 12 12 12 12 12 13 14 14 14 14 14 14 15 15 15 15 15 14 14 14
13 13 13 13 13 13 13 13 12 12 12 12 12 12 12 12 11 11 11 11 10 10 10 10 10 9 10 9 9 9 8 8 7 7 7 7 7 7 6 6 7 7 8 8 9 8 8 8 8 7 6 6 6 6 6 6 6 6 6 6 7 8 8 9 10 10 11 11 11 11 12 13 13 13 14 14 14 14 14 15 15 15 15 14 14
12 12 12 12 12 12 12 12 12 12 12 12 12 12 11 11 11 11 11 10 10 10 10 9 9 9 8 8 7 6 6 6 6 6 6 6 6 5 5 5 5 7 8 7 8 8 8 7 7 6 6 6 5 5 5 5 5 5 5 5 6 6 7 7 8 9 10 10 10 10 11 12 12 13 13 14 14 14 14 15 15 15 15 15 14
12 12 12 12 12 12 12 12 12 12 12 11 11 11 11 11 11 11 10 10 10 10 9 9 8 8 7 7 6 6 6 5 5 5 5 5 5 4 4 5 5 6 7 7 7 7 7 7 6 6 6 5 5 5 5 5 5 5 5 5 5 6 6 6 7 8 9 9 9 10 10 10 11 12 12 13 14 15 15 15 15 15 15 15 15
12 11 11 11 11 11 11 11 11 11 11 11 11 11 11 11 10 10 10 9 9 9 8 8 8 7 7 6 6 6 5 5 5 5 5 5 4 4 4 4 5 5 6 6 6 6 6 6 6 5 5 5 4 5 5 5 5 5 5 5 5 5 5 5 6 6 7 8 9 9 9 9 10 10 11 12 13 14 14 14 14 15 15 15 15
11 11 11 11 11 11 11 11 11 11 11 11 11 11 11 10 10 10 9 9 9 9 8 8 7 7 7 6 6 5 5 5 5 5 4 4 4 4 4 4 5 5 6 6 6 6 5 5 5 5 5 4 4 4 5 5 5 5 5 5 5 5 5 5 5 5 6 7 8 8 8 8 9 9 10 11 12 13 14 14 14 14 14 14 14
11 11 11 11 11 11 11 11 11 11 11 11 10 10 10 10 9 9 9 9 9 8 8 7 7 6 6 6 5 5 5 4 4 4 4 4 4 4 3 3 4 5 5 5 5 5 5 5 5 5 5 4 4 4 4 5 4 5 5 5 5 5 5 5 5 5 5 6 6 7 7 7 8 9 9 10 11 12 13 13 13 14 14 14 14
11 11 11 11 11 11 11 11 11 11 10 10 10 10 10 10 9 9 8 8 8 7 7 7 6 6 6 6 5 4 4 4 4 4 3 3 4 4 4 3 4 4 4 5 5 5 5 4 4 4 4 4 4 4 4 4 4 5 5 5 5 4 4 4 4 4 4 5 5 5 6 7 8 8 9 9 10 11 12 12 12 13 13 13 14
11 10 10 10 10 10 10 10 10 10 10 10 10 10 10 9 9 8 8 8 7 7 7 6 6 6 6 5 5 4 4 4 4 3 3 3 3 3 3 3 3 4 3 3 4 4 4 4 4 4 5 5 4 4 4 4 4 4 5 4 4 4 4 4 4 4 4 4 4 4 5 6 7 7 8 9 9 10 11 11 11 12 12 12 13
10 10 10 10 10 10 10 10 10 10 10 10 10 9 9 9 8 8 8 7 7 6 6 6 6 6 6 5 5 5 5 5 4 4 3 3 3 3 3 3 3 3 3 3 3 4 4 4 4 4 4 4 4 4 4 4 4 4 4 4 4 4 4 4 4 4 4 4 4 4 4 5 5 6 7 8 8 9 10 11 11 11 11 12 12
10 10 10 10 10 10 10 10 10 10 10 9 9 9 9 8 8 8 7 7 7 6 6 6 5 6 6 6 5 5 5 5 4 4 4 3 3 3 3 3 3 3 3 3 3 4 4 4 4 5 4 4 4 4 4 4 4 4 4 4 4 4 4 4 4 4 4 4 4 4 4 4 5 5 6 7 8 9 9 10 11 11 11 11 11
10 10 10 10 10 10 10 10 10 10 9 9 9 9 8 8 8 7 7 7 7 6 6 6 6 6 6 5 5 5 5 5 4 4 3 3 3 3 3 3 3 3 3 3 3 3 4 4 4 4 4 4 4 4 4 4 4 4 4 4 4 4 4 4 4 4 4 4 4 4 4 4 4 4 5 6 7 8 9 9 10 11 11 11 11
10 10 10 10 10 10 10 10 9 9 9 9 9 8 8 8 7 7 7 7 6 6 6 6 6 6 6 5 5 5 5 5 4 4 4 4 3 3 3 3 3 3 3 3 3 3 3 4 4 4 4 4 4 4 4 4 4 4 4 4 4 4 4 4 4 4 4 4 4 4 4 4 4 4 4 5 6 7 8 9 10 10 10 11 11
10 10 10 10 10 10 10 9 9 9 9 9 8 8 8 8 7 7 7 7 6 6 6 6 6 6 6 5 5 5 5 5 4 4 4 4 4 4 4 4 4 4 4 3 2 2 3 4 4 4 4 4 4 4 4 4 4 4 4 4 4 4 4 4 4 4 4 4 4 4 4 4 4 4 4 4 6 6 7 8 9 9 10 10 11
10 10 10 9 9 9 9 9 9 9 9 8 8 8 8 7 7 7 7 7 6 6 6 6 6 6 6 6 5 5 5 5 5 5 4 4 4 4 4 4 4 4 4 4 3 2 2 3 3 4 4 4 4 4 4 4 4 4 4 4 4 4 4 4 4 4 4 4 4 4 4 4 3 4 4 4 4 5 6 7 7 8 9 10 10
10 10 9 9 9 9 9 9 9 9 8 8 8 8 8 7 7 7 7 7 6 6 6 6 6 6 6 6 5 5 5 5 5 5 5 5 5 5 5 5 4 4 4 4 4 3 2 2 3 4 4 4 4 4 4 4 4 4 4 4 4 4 4 4 4 4 4 4 4 3 3 3 3 3 4 4 4 4 5 6 6 7 7 8 9
10 10 9 9 9 9 9 9 9 8 8 8 8 8 7 7 7 7 7 7 7 6 6 6 6 6 6 6 6 5 5 5 5 5 5 5 5 5 5 5 5 5 5 5 4 4 3 2 3 3 4 4 4 4 4 4 4 4 4 4 4 4 4 4 4 3 4 3 3 3 3 3 3 3 3 3 3 4 4 5 6 6 6 7 9
10 9 9 8 8 9 8 8 8 8 8 8 8 8 7 7 7 7 7 7 7 6 6 6 6 6 6 6 6 6 5 5 5 5 5 5 5 5 5 5 5 5 5 5 5 4 3 3 3 3 3 4 4 4 4 4 4 4 4 4 4 4 4 3 3 3 3 3 3 3 3 3 3 3 3 3 3 3 3 4 5 6 6 7 8
9 9 9 8 8 8 8 8 8 8 8 8 8 8 7 7 7 7 7 7 7 6 6 6 6 6 6 6 6 6 5 5 5 5 6 6 6 6 6 5 5 5 5 5 4 4 3 3 3 3 3 3 3 4 4 4 4 4 4 4 4 4 3 3 3 3 3 3 3 3 3 3 3 3 3 3 3 3 3 3 4 5 6 6 8
9 9 8 8 8 8 8 8 8 8 8 8 8 7 7 7 7 7 7 7 7 6 6 6 6 6 6 6 6 6 6 6 6 6 6 6 6 6 6 6 5 5 4 4 4 4 3 3 3 3 3 3 3 4 4 4 4 4 4 4 4 3 3 3 3 3 3 3 3 3 3 3 2 2 2 2 2 3 3 3 3 4 5 5 6
9 8 8 8 8 8 8 8 8 8 8 8 7 7 7 7 7 7 7 7 7 6 6 6 6 6 6 6 6 6 6 6 6 6 6 6 6 6 6 6 5 5 4 4 4 3 3 2 2 3 3 3 3 3 3 3 4 4 4 4 3 3 3 3 3 3 3 3 3 3 2 2 2 2 2 2 2 2 3 3 3 3 4 5 5
8 8 8 7 7 7 7 8 8 8 8 8 8 7 7 7 7 7 7 7 7 6 6 6 6 6 6 6 6 6 6 6 6 6 6 6 6 6 6 6 5 5 5 4 4 4 3 2 2 2 2 2 3 3 3 3 3 4 4 3 3 3 3 3 3 3 3 3 2 2 2 2 2 2 2 2 2 2 2 3 3 3 4 4 5
8 8 7 7 7 7 7 7 8 8 8 8 8 7 7 7 7 7 7 7 7 6 6 6 6 6 6 6 6 6 6 6 6 6 7 7 6 6 6 6 6 5 5 5 4 4 3 2 2 2 2 2 3 3 3 3 3 3 3 3 3 3 2 2 2 3 3 3 2 2 2 2 2 2 2 2 2 2 2 3 3 3 4 4 5
8 7 7 7 7 7 7 7 7 7 7 7 7 7 8 7 7 7 7 7 7 6 6 6 6 6 6 6 6 6 6 6 6 6 7 7 6 6 6 6 6 6 5 5 4 4 3 3 2 3 3 2 3 3 3 3 3 3 3 3 3 2 2 2 2 2 3 2 2 1 1 2 2 2 2 2 2 2 2 3 3 3 4 4 5
7 7 7 7 7 7 7 7 7 7 7 7 7 7 7 8 8 7 7 7 6 6 6 6 6 6 6 6 6 6 6 6 6 6 7 7 6 6 6 6 6 6 5 5 5 5 4 3 3 3 3 3 2 3 3 3 3 2 2 2 2 2 2 2 2 2 2 2 2 1 1 2 2 2 2 2 2 2 2 3 3 3 4 4 5
7 7 7 7 7 7 7 7 7 7 7 7 7 7 7 7 7 7 7 7 6 6 6 6 6 6 6 6 6 6 6 6 6 6 6 6 6 6 6 6 6 5 5 5 5 5 5 4 3 3 4 4 3 3 4 3 3 2 2 2 2 2 2 2 2 2 2 2 2 1 1 2 2 2 1 1 2 2 2 3 3 3 4 4 5
7 7 7 7 7 7 7 7 7 7 7 7 7 7 7 7 7 7 7 7 7 6 6 6 6 6 6 6 6 6 6 6 6 6 6 6 6 6 6 6 5 5 5 5 5 5 5 5 4 4 4 4 4 4 4 3 3 2 2 2 2 2 2 2 2 2 2 2 2 1 1 1 1 1 1 1 1 2 2 2 3 3 4 4 5
7 7 7 7 7 7 7 7 7 6 6 6 7 7 7 7 7 7 7 7 7 6 6 6 6 6 6 6 6 6 6 6 6 6 6 6 6 6 5 5 5 5 5 5 5 5 5 5 5 5 5 5 5 4 4 4 3 3 2 2 2 2 2 2 2 2 2 2 1 1 1 1 1 1 1 1 1 1 2 2 3 3 4 5 5
7 7 7 7 7 7 7 7 7 6 6 6 6 7 7 6 6 7 7 7 7 6 6 6 6 6 6 6 6 7 7 6 6 6 6 6 6 6 5 5 5 5 5 5 5 5 5 5 5 5 5 5 5 5 5 4 3 3 2 2 2 2 1 1 1 1 1 1 1 1 1 0 0 0 1 1 1 1 2 2 3 3 4 5 6
6 6 6 7 7 7 7 7 7 7 6 6 6 6 6 6 6 6 6 6 6 6 6 6 6 6 6 7 7 7 7 6 6 6 6 6 6 5 5 5 5 4 4 5 5 5 5 5 5 5 5 5 5 5 4 4 4 3 2 1 1 1 1 1 1 1 1 1 1 1 0 0 0 0 0 1 1 1 2 3 3 4 4 5 5
7 6 6 6 6 6 6 6 7 7 7 6 6 6 6 6 6 6 6 6 6 6 6 6 6 7 7 7 7 7 7 6 6 6 6 6 6 5 5 5 4 4 4 4 5 5 5 5 5 5 5 5 5 5 4 4 4 3 2 2 1 1 1 1 0 0 0 1 1 0 -0 -0 -0 -0 0 0 1 2 2 3 3 3 4 4 5
Height
830 830 831 831 831 831 831 832 832 832 832 832 832 832 832 832 831 831 831 830 830 830 829 829 829 828 828 827 827 826 826 825 825 824 824 824 823 823 822 822 822 822 821 821 820 820 820 820 820 821 821 820 819 819 819 819 818 817 816 816 815 815 815 814 814 815 815 815 815 815 816 815 815 815 814 814 813 813 814 815 815 814 814 814 814
830 830 831 831 831 831 831 832 832 832 832 832 832 832 832 832 831 831 830 830 829 829 828 828 828 828 827 826 826 826 825 825 824 824 824 823 823 822 822 821 821 820 820 819 819 818 818 819 819 819 819 818 818 819 819 819 818 816 815 815 815 814 814 813 813 814 814 814 814 814 815 815 815 815 814 814 813 813 813 814 814 814 814 814 814
830 830 831 831 831 831 831 832 832 832 832 832 832 832 832 832 831 830 830 829 829 828 828 827 827 827 826 826 825 825 824 824 824 823 823 822 822 821 820 820 819 819 819 818 818 817 817 817 817 818 818 816 816 817 817 817 816 815 815 814 814 813 813 813 812 813 813 813 813 813 814 814 814 815 814 814 813 813 812 813 814 814 814 814 814
830 830 831 831 831 831 831 832 832 832 832 832 832 832 832 832 831 830 830 829 829 828 827 827 827 826 825 825 825 824 824 824 823 823 822 821 821 820 819 819 818 818 817 817 816 816 816 816 816 817 817 815 815 815 815 815 814 814 814 813 812 812 812 812 811 811 812 812 812 812 813 813 813 814 814 813 813 813 812 812 813 813 814 813 813
830 830 831 831 831 831 831 831 832 832 832 832 832 832 832 832 831 830 830 829 828 827 827 827 826 825 825 824 824 824 824 823 823 822 821 821 820 819 818 818 817 817 816 815 815 815 815 815 815 815 815 815 814 813 813 814 813 812 812 811 811 811 810 811 810 810 810 811 811 811 812 812 812 812 813 813 813 813 812 811 812 812 813 813 813
829 830 830 831 831 831 831 831 831 831 832 832 832 831 831 831 831 830 829 829 828 827 826 826 825 824 824 824 824 823 823 822 822 821 820 820 819 818 818 817 817 816 815 815 814 814 814 813 813 813 813 813 813 812 811 811 810 809 809 810 810 809 809 808 808 809 809 809 810 810 810 810 810 811 811 812 812 812 812 811 811 811 812 813 813
829 830 830 830 831 831 831 831 832 832 832 832 831 831 831 831 830 829 829 828 827 826 825 824 824 823 823 823 823 823 822 821 821 820 819 818 818 817 817 817 816 815 815 814 813 813 813 812 812 812 811 812 811 810 810 809 808 808 807 807 807 807 807 807 807 807 807 808 808 809 809 809 809 809 810 810 811 811 811 811 810 810 811 812 812
829 829 829 830 830 830 831 831 832 832 832 832 831 831 831 830 829 829 828 828 827 825 824 823 823 822 822 823 823 822 821 821 820 819 818 818 817 817 816 816 815 815 814 813 813 812 812 811 811 810 810 810 810 809 808 807 806 806 806 806 805 805 806 806 806 806 806 806 806 806 807 808 808 808 808 809 809 810 810 810 809 809 810 811 812
829 829 829 829 829 830 830 831 831 832 832 832 832 831 831 830 829 828 828 828 826 825 823 822 822 822 822 822 822 822 821 820 819 819 818 817 817 816 816 815 814 814 813 812 812 811 811 810 810 809 809 808 808 808 807 806 805 804 803 804 803 803 803 803 803 804 804 803 803 804 804 805 806 806 807 807 807 808 808 809 809 808 808 809 810
828 828 828 828 829 829 830 831 831 831 832 832 832 832 830 830 829 829 829 828 826 824 823 822 822 822 822 822 822 822 821 820 820 819 818 817 817 816 815 814 814 813 813 812 811 810 810 809 808 808 807 807 806 806 805 805 804 802 802 802 801 801 800 801 800 800 801 801 801 801 802 803 804 805 805 805 806 806 806 807 807 807 807 808 809
828 828 828 828 828 829 830 830 831 831 832 833 833 832 831 830 830 830 830 828 826 824 823 822 822 822 822 823 822 821 821 821 820 819 818 817 817 816 815 815 814 813 813 812 811 810 810 809 808 807 806 805 804 804 803 803 802 801 801 801 800 799 798 798 797 797 797 798 799 800 800 801 801 802 803 804 804 804 805 805 805 806 806 806 807
828 828 828 828 829 829 830 831 831 832 833 833 833 832 831 832 832 831 829 827 825 824 823 823 822 822 822 822 822 821 821 821 820 819 818 818 817 817 816 815 814 814 813 813 812 811 810 809 808 807 805 804 803 802 802 801 801 800 800 800 800 798 797 796 796 796 796 797 798 798 798 798 799 799 800 801 802 802 803 803 803 804 805 805 805
829 828 828 829 829 830 831 831 832 833 833 834 833 832 832 833 833 831 829 826 825 824 824 823 823 822 822 822 822 821 821 821 820 819 819 818 818 817 816 815 814 814 814 813 812 811 810 809 808 807 806 804 803 801 801 800 800 799 799 798 797 797 796 794 794 795 796 796 795 794 795 796 796 797 798 799 800 800 800 801 801 802 803 803 804
830 829 829 829 830 830 831 832 833 834 834 833 833 833 834 834 832 830 828 826 825 825 825 824 825 824 824 822 821 820 820 820 820 820 820 819 818 817 816 816 815 814 814 813 812 811 810 810 809 807 806 805 803 802 801 800 800 799 798 796 795 794 793 792 791 792 793 793 792 792 792 793 794 794 795 797 797 798 798 799 799 800 800 801 802
830 830 830 830 831 831 832 833 833 834 834 834 834 835 834 834 832 830 828 827 827 827 826 826 827 826 826 825 823 822 821 819 819 820 821 820 818 818 817 817 816 815 814 813 812 812 811 810 809 808 807 805 804 803 802 801 800 799 798 797 795 794 793 791 789 789 790 790 790 791 791 791 792 793 792 793 794 795 796 797 797 798 798 799 800
831 831 831 831 832 832 832 833 833 834 835 835 835 835 835 833 831 829 828 827 828 828 829 829 828 827 827 827 826 825 825 824 822 821 821 821 819 819 818 817 817 816 815 814 813 812 812 811 810 808 807 806 805 803 802 801 800 799 798 797 795 794 793 792 790 788 788 789 788 788 789 789 790 791 791 791 792 794 794 795 795 796 796 797 797
832 832 832 832 832 832 832 833 834 835 836 836 836 835 834 832 830 828 827 828 829 830 830 830 830 829 828 829 828 828 829 828 825 822 821 821 821 819 819 819 818 817 815 815 814 813 812 812 811 810 808 806 805 803 802 801 800 798 797 796 796 794 793 792 790 788 787 788 787 786 785 785 786 787 788 788 789 791 792 792 793 794 794 795 795
833 832 832 832 832 832 832 833 834 835 836 836 836 835 833 831 829 828 828 829 830 831 831 831 831 830 830 830 831 832 831 830 829 826 822 821 821 820 819 819 819 818 816 815 814 814 813 812 812 810 809 807 805 804 802 801 800 799 798 797 796 794 793 792 790 788 787 787 786 784 783 782 782 783 784 785 786 786 787 788 790 791 792 793 793
834 833 833 832 832 832 833 833 834 835 836 836 835 834 832 831 830 829 830 831 831 831 832 832 832 832 832 832 832 833 832 832 833 831 827 823 821 821 821 820 820 818 817 816 815 814 814 813 812 811 809 808 806 804 802 800 799 798 797 796 795 794 793 791 790 788 786 786 784 782 781 781 780 780 780 781 782 783 783 785 786 788 789 790 790
835 834 833 833 832 832 833 833 834 835 836 835 835 833 832 831 831 831 832 832 832 833 833 833 833 833 833 833 833 834 833 834 835 834 833 829 823 820 819 818 819 819 818 816 816 815 814 814 813 811 810 808 807 804 802 800 799 797 796 795 794 793 792 791 789 787 785 785 783 781 778 778 778 777 777 777 778 779 780 781 782 783 785 786 787
835 834 834 833 832 833 833 834 835 836 835 835 834 833 832 832 832 833 833 834 834 834 834 834 835 835 835 834 834 834 834 834 835 834 835 834 828 824 820 815 814 816 818 817 816 816 816 814 813 812 810 809 807 805 803 801 799 797 796 795 794 792 791 790 788 786 784 783 782 780 777 775 775 775 774 774 775 775 775 776 778 779 781 782 783
835 835 834 833 833 834 835 835 835 835 835 834 834 833 833 833 834 835 835 836 836 836 836 837 837 837 837 837 836 836 836 837 837 837 837 838 836 832 827 823 818 815 817 818 816 816 816 815 814 812 811 809 807 805 803 801 799 798 797 795 794 792 790 788 787 785 784 782 781 779 777 774 773 772 772 771 771 771 771 772 772 775 777 778 779
835 834 834 834 835 835 835 836 835 835 835 834 834 834 835 835 836 837 837 837 838 838 838 839 839 839 840 840 840 840 841 842 843 842 841 841 840 837 833 830 824 819 817 818 817 817 816 815 814 813 811 809 807 805 803 802 800 798 797 795 793 792 790 788 786 784 782 781 780 778 777 774 771 770 770 769 768 767 767 767 768 770 772 773 775
835 834 835 835 835 836 836 836 835 835 835 834 835 836 836 837 838 838 839 839 840 840 840 841 841 842 842 842 843 843 844 845 845 844 844 843 842 839 835 831 826 821 819 819 818 817 817 816 815 814 812 810 808 806 804 802 800 798 796 795 793 791 789 788 785 783 781 779 778 777 775 773 771 769 767 767 766 764 763 763 764 766 767 769 771
835 835 835 836 836 836 836 836 836 836 836 836 837 837 838 839 840 840 841 841 842 842 842 843 843 844 844 844 844 844 845 846 846 845 844 843 841 839 836 833 829 824 821 820 819 818 817 817 815 814 813 811 809 806 804 802 800 798 796 794 792 791 789 787 785 782 780 778 777 776 774 772 770 768 766 765 763 761 760 759 760 762 763 764 766
835 835 836 836 836 837 837 837 837 836 837 837 838 839 840 841 841 842 843 844 844 844 844 845 845 845 845 845 845 846 846 847 846 845 844 842 841 839 836 832 828 825 823 822 820 819 818 817 816 815 813 811 809 807 804 802 800 798 796 794 791 790 788 786 785 782 779 777 775 774 772 770 768 767 765 763 761 759 757 756 756 757 759 759 760
836 836 837 837 837 838 838 837 838 838 838 839 840 841 842 842 843 844 845 846 846 846 846 846 846 847 846 847 847 847 847 847 846 845 844 843 842 841 839 835 830 825 823 822 821 821 820 817 815 815 813 811 809 808 805 802 800 797 796 793 790 789 787 785 784 781 779 776 774 772 770 768 766 764 763 761 759 757 755 754 753 754 754 755 756
837 837 838 838 838 839 838 838 839 839 840 841 842 843 844 844 845 846 847 848 847 847 848 848 848 848 848 848 848 848 848 847 846 845 844 844 843 842 841 840 838 833 827 823 822 822 821 818 815 813 813 812 809 807 805 802 800 798 795 793 790 788 786 784 782 780 777 775 772 770 768 766 764 762 760 759 756 754 752 751 750 750 750 750 751
838 838 839 839 839 839 839 839 839 840 841 843 844 845 845 846 847 848 849 849 849 849 850 850 850 850 850 850 849 849 848 847 846 846 845 844 844 843 843 842 842 841 837 833 828 825 823 821 819 814 812 812 809 806 804 802 800 798 795 792 790 787 785 783 781 778 776 773 771 768 766 764 762 760 758 756 754 752 750 748 747 747 747 746 748
839 839 840 840 840 839 839 840 840 841 843 844 846 847 847 848 849 850 850 850 850 851 852 852 852 852 851 851 850 850 849 848 847 846 846 846 845 845 845 844 844 844 844 841 836 831 826 823 821 817 812 810 809 806 803 801 799 797 794 791 789 786 783 781 779 777 775 772 769 766 764 762 759 757 755 753 751 749 747 746 744 744 744 743 744
840 840 840 840 840 840 840 841 842 843 845 846 848 848 849 850 850 851 852 852 852 853 854 854 854 853 852 852 851 850 850 849 848 848 848 847 847 847 846 845 845 844 845 844 840 834 830 826 822 819 815 811 808 805 802 800 798 795 793 790 787 784 782 779 777 774 772 770 768 764 762 759 757 754 752 750 748 746 744 743 742 741 741 740 740
840 840 840 840 840 841 841 842 843 845 847 848 849 850 850 851 852 853 854 854 853 854 855 855 855 854 853 852 852 852 852 851 851 850 850 849 848 848 847 846 846 845 844 844 841 835 832 829 824 820 816 812 808 805 801 797 795 793 791 788 785 782 779 777 775 772 770 767 765 763 760 757 754 751 749 747 745 743 741 740 739 738 738 737 737
841 840 840 841 841 842 843 844 845 847 848 850 851 851 852 852 853 854 855 855 855 856 856 856 856 855 854 853 853 854 854 853 853 852 851 851 850 849 848 847 846 845 844 843 841 836 830 829 826 821 817 813 808 805 801 796 792 790 788 786 783 781 778 774 771 769 767 765 762 760 758 755 752 749 746 744 742 740 738 736 736 736 735 734 734
841 841 841 842 843 843 844 845 847 849 850 851 852 853 853 854 855 856 856 856 856 856 856 856 856 856 855 855 855 856 856 855 854 853 852 852 851 850 849 848 847 846 845 843 841 837 831 827 824 820 816 813 809 805 802 797 792 789 785 782 780 778 776 772 769 766 764 761 759 757 755 752 750 747 744 741 739 737 735 733 732 732 732 731 731
841 842 842 843 844 845 846 847 849 850 852 853 853 854 854 855 856 857 857 857 857 857 857 857 857 857 857 857 857 857 857 856 855 855 854 853 852 851 850 849 847 846 844 843 840 837 832 827 823 820 816 812 809 805 802 798 794 789 785 781 778 775 773 770 767 763 761 758 755 753 751 749 747 744 741 739 736 734 732 730 729 728 728 728 727
842 843 843 844 845 846 847 849 850 852 853 854 855 855 856 856 857 858 858 858 858 857 858 858 859 859 859 859 859 859 858 857 856 856 855 854 853 852 851 849 848 846 844 842 839 837 832 827 823 820 816 812 809 805 801 797 793 789 785 780 776 772 769 767 764 761 757 754 752 749 747 746 744 741 739 737 734 732 729 727 726 725 724 724 724
843 844 844 845 846 848 849 850 852 853 854 855 855 856 857 857 858 858 858 859 859 859 859 860 860 861 861 860 860 860 859 858 858 857 856 855 854 853 851 849 848 846 843 841 838 836 832 827 822 818 816 812 808 804 801 796 791 786 782 779 775 770 766 762 760 758 754 750 748 745 743 742 741 739 736 734 732 729 727 724 722 721 720 719 719
844 845 845 846 848 849 851 852 853 854 855 856 856 857 857 858 858 859 859 859 860 861 861 862 862 862 862 862 861 861 860 859 859 858 857 856 854 853 851 849 847 845 842 840 837 834 831 827 822 818 814 811 807 803 800 796 791 785 779 774 770 768 764 759 755 752 750 747 744 742 740 738 737 736 733 731 729 726 723 720 718 717 716 715 715
845 846 846 848 849 851 852 853 854 855 856 857 857 858 858 859 859 860 860 861 862 862 863 864 864 864 863 863 862 862 861 860 859 859 857 856 854 853 851 849 846 844 841 839 836 833 830 826 822 818 814 810 807 802 798 795 791 787 781 773 765 761 760 758 753 748 745 742 740 739 737 735 733 732 729 727 724 721 719 717 714 713 712 711 711
846 847 848 849 850 852 853 854 855 856 857 858 858 858 859 860 860 861 862 863 863 864 865 865 865 865 864 864 863 863 862 862 861 859 858 856 854 852 850 848 846 843 841 838 835 832 829 825 822 818 814 810 806 802 797 793 789 785 782 777 769 761 756 754 752 747 741 738 736 734 734 732 728 725 724 721 719 717 715 713 711 709 708 707 707
847 848 849 850 851 853 854 855 856 857 858 859 859 859 860 861 861 862 863 864 865 866 866 866 866 866 865 865 865 864 863 862 861 860 858 856 854 852 849 847 845 842 840 837 834 831 828 825 821 818 814 810 806 801 797 793 790 785 781 777 771 764 757 751 748 747 742 736 732 730 730 729 724 720 718 716 714 713 711 709 707 705 703 703 703
848 849 850 851 852 854 855 856 857 858 859 859 860 861 861 862 863 864 864 865 866 867 867 867 867 866 866 866 865 865 864 863 861 860 858 856 854 852 850 847 844 842 839 836 834 831 828 825 821 818 814 810 806 802 798 794 791 786 781 776 770 763 757 749 741 740 740 737 730 725 725 726 722 717 713 712 710 709 707 705 703 702 699 698 698
849 850 852 853 854 855 856 857 858 858 859 860 861 862 862 863 864 864 866 866 867 868 868 868 867 867 867 867 866 865 864 863 861 859 858 856 854 852 850 848 845 842 840 836 833 831 829 825 822 819 815 811 806 803 799 794 790 786 781 776 770 763 758 751 741 736 736 735 730 723 720 721 720 714 709 708 705 704 703 701 699 698 696 694 693
850 851 853 854 855 856 856 857 858 859 860 861 862 863 863 864 865 865 866 867 868 868 868 868 868 868 868 867 866 865 864 863 861 859 857 855 853 851 849 847 845 843 840 837 834 831 829 826 822 819 815 811 807 802 798 793 789 785 780 776 771 765 759 754 747 739 734 734 730 722 716 716 716 711 706 703 701 699 698 697 696 694 692 691 689
851 852 854 854 855 856 857 858 859 860 861 862 863 863 864 864 865 866 867 867 868 868 869 868 868 868 868 867 866 865 864 862 861 858 856 854 852 851 849 847 844 842 840 837 835 832 829 826 823 819 815 812 807 802 798 794 788 783 778 773 769 764 759 754 748 741 735 733 728 720 714 711 710 707 703 699 697 696 694 693 692 690 688 687 685
852 853 854 855 855 856 857 858 860 861 862 863 863 864 864 865 866 866 867 868 868 869 869 869 869 868 868 867 865 864 863 862 860 858 856 854 851 850 848 845 843 841 839 836 834 831 829 826 823 819 815 812 808 802 797 793 789 783 778 772 766 761 757 752 748 741 735 732 728 720 712 708 705 703 700 695 693 691 690 689 687 686 684 683 681
853 854 855 855 856 857 858 859 860 861 862 863 863 864 864 865 866 866 867 868 868 868 869 869 869 868 867 866 865 864 863 861 860 858 856 853 851 849 847 845 842 840 838 835 833 830 828 825 822 819 815 811 807 802 796 792 789 784 779 773 766 760 754 749 744 739 734 731 728 722 713 706 703 701 696 693 690 687 685 683 682 681 680 678 677
854 855 855 856 856 858 859 860 861 861 862 863 863 864 864 865 866 866 867 867 868 868 869 869 868 868 867 866 865 864 863 861 860 858 855 853 851 849 847 844 842 839 837 835 833 830 828 825 822 818 815 811 806 801 796 791 787 782 777 771 765 758 752 745 740 735 731 728 725 721 713 705 703 700 694 690 688 683 679 677 676 675 675 673 672
855 856 856 857 857 858 859 860 861 861 862 863 863 864 864 865 865 866 867 867 868 868 869 868 868 868 867 866 865 864 863 861 859 857 855 853 851 849 846 844 841 839 836 833 832 829 827 824 821 817 813 809 805 799 794 790 785 780 774 767 762 756 750 744 738 732 728 725 721 718 713 705 702 699 693 687 684 680 675 672 671 671 670 668 668
856 857 857 857 858 860 860 861 861 861 862 862 863 863 864 865 865 866 866 867 868 868 868 868 868 867 866 865 864 863 862 861 859 857 855 853 851 848 846 844 841 838 835 833 830 827 825 822 819 815 812 807 803 797 792 788 783 779 774 768 761 756 750 744 738 731 726 723 720 717 711 704 700 697 692 685 678 674 672 669 667 667 666 665 664
856 857 858 858 859 860 861 862 862 862 862 863 863 864 864 865 865 866 866 867 867 868 868 868 868 867 866 865 864 863 862 860 859 857 855 853 851 848 846 844 841 838 835 832 829 826 823 820 816 813 809 805 801 796 791 787 782 778 774 768 762 756 751 746 740 733 725 720 718 716 711 703 698 695 692 687 676 667 666 667 665 664 663 662 660
Wind_Speed
6 4 3 3 3 2 1 0 1 1 1 1 2 2 2 2 3 4 4 5 5 6 6 7 8 8 8 7 7 8 9 10 8 7 7 8 8 9 9 9 11 13 17 18 18 19 18 17 16 15 15 15 16 16 14 12 11 12 13 13 12 10 10 10 10 9 10 9 9 12 12 11 12 11 10 10 9 8 7 7 7 7 6 6 5
6 5 5 4 3 2 1 1 1 2 1 1 1 2 3 4 5 5 5 5 5 6 6 7 7 7 7 7 8 9 9 9 9 8 8 9 10 11 11 12 13 14 16 16 17 19 18 18 18 17 17 17 17 16 16 15 14 14 14 14 14 13 11 11 10 10 11 11 10 11 13 12 12 12 11 11 11 9 9 9 8 8 7 7 6
7 6 5 4 4 4 3 2 2 2 1 1 1 3 4 5 5 5 6 6 5 6 6 6 6 6 6 7 8 9 9 10 10 9 9 10 11 12 13 13 14 14 15 16 17 18 18 19 19 19 19 21 18 16 16 17 17 16 16 16 15 15 13 12 12 11 12 12 11 11 12 13 13 13 12 13 14 12 11 10 9 9 8 8 7
7 6 5 5 5 5 4 3 3 2 1 0 2 3 3 3 3 3 4 4 4 4 5 6 6 6 6 7 8 9 9 10 10 9 9 10 10 11 12 12 13 14 15 16 16 17 18 19 20 20 19 21 21 19 18 18 19 18 17 17 18 17 16 14 13 12 12 12 12 12 12 13 14 14 13 14 15 14 13 12 10 9 9 9 8
7 6 6 6 5 5 4 4 4 3 1 1 2 3 2 2 1 2 3 4 4 3 4 4 5 6 7 8 9 9 10 10 10 10 9 10 10 10 11 12 13 14 14 15 16 17 18 19 20 21 20 20 22 22 20 18 20 19 17 18 20 20 19 17 16 14 13 13 13 14 13 13 14 14 14 14 15 16 15 14 12 11 10 10 9
7 6 6 6 5 4 4 4 3 2 1 1 2 2 2 2 2 3 5 5 5 5 5 5 6 7 8 9 10 11 11 11 11 10 10 10 10 10 11 12 14 14 15 15 16 16 17 18 19 21 21 21 21 22 22 19 19 20 19 19 20 22 22 20 18 17 15 14 14 14 15 14 14 14 13 14 15 17 18 16 15 13 12 11 10
7 6 6 5 4 3 3 3 1 0 1 2 2 2 2 3 4 5 7 7 7 7 7 7 8 8 9 9 10 11 11 11 11 10 10 10 10 11 12 13 14 15 16 16 17 17 18 19 19 20 21 21 21 21 21 20 19 20 22 20 20 23 24 23 21 19 17 15 15 15 16 16 15 15 14 14 14 16 19 19 16 15 14 12 11
6 5 5 5 3 3 3 1 1 1 2 2 2 2 2 4 5 7 8 8 8 8 8 9 9 10 10 10 10 11 11 11 11 10 9 9 9 10 11 13 14 15 16 17 18 19 20 20 20 20 20 20 21 21 21 21 21 20 21 21 21 21 23 24 23 21 20 18 16 16 17 18 17 16 16 15 14 15 18 21 18 16 16 14 13
5 4 4 4 3 3 3 2 1 1 1 1 2 2 3 4 5 7 7 7 8 9 9 10 10 11 11 11 11 11 10 10 9 9 8 8 10 11 11 12 13 14 15 16 17 19 19 20 20 20 20 21 20 21 21 21 22 21 20 20 21 22 21 23 23 23 23 22 19 18 18 19 18 18 18 17 16 15 16 21 21 17 18 17 15
5 4 4 5 5 5 5 5 3 2 1 1 2 2 3 4 5 5 5 6 8 9 10 10 11 12 12 12 11 10 9 9 9 9 9 10 11 12 12 13 14 15 15 15 16 17 19 20 20 20 20 20 20 20 21 21 22 22 21 20 21 22 20 21 23 24 25 25 23 20 18 20 20 19 19 18 18 16 16 20 22 19 18 19 18
5 6 7 8 8 8 8 7 5 3 1 1 1 3 4 4 4 3 3 6 8 10 10 10 11 11 11 10 9 7 6 9 10 11 13 13 13 14 14 15 15 16 17 17 18 19 20 21 21 21 20 20 20 20 21 20 21 22 22 21 21 23 21 20 22 24 25 26 25 20 18 21 22 21 21 21 19 18 16 18 22 21 19 20 20
8 9 9 9 9 9 8 7 5 3 2 2 3 5 5 4 3 3 4 6 8 11 11 11 11 11 10 8 6 4 4 8 11 13 14 14 14 14 15 15 16 18 19 19 20 21 22 22 22 22 22 21 21 20 20 19 20 21 23 23 21 21 21 21 21 23 25 25 25 23 21 22 23 23 23 23 22 20 18 18 21 22 19 20 21
11 11 11 10 10 9 8 8 6 4 4 4 5 5 5 4 3 5 7 9 12 14 13 12 11 11 12 9 7 2 1 4 9 14 15 13 13 14 15 17 17 19 20 20 21 22 23 22 23 24 23 23 22 22 21 21 22 22 21 23 22 20 20 20 21 22 23 23 25 26 25 24 24 23 24 24 23 22 20 19 21 23 22 20 21
12 12 12 11 11 10 10 9 7 6 5 5 4 4 3 3 4 6 9 11 14 15 15 12 9 9 8 8 8 3 2 3 4 12 15 12 12 14 16 19 20 20 20 21 22 22 23 22 22 24 24 24 23 23 23 22 24 23 21 21 22 22 22 21 19 18 20 23 26 27 26 26 26 24 24 25 25 25 23 21 21 23 24 23 22
12 11 11 11 10 10 10 9 8 6 5 4 4 4 5 5 6 7 8 10 12 14 15 13 10 8 4 3 5 3 4 4 7 13 12 10 12 14 17 20 21 21 21 21 22 22 22 22 22 23 23 24 23 24 23 22 22 23 21 21 22 24 25 22 19 17 16 18 23 27 27 27 28 27 25 25 27 27 25 23 22 23 24 25 24
12 10 10 10 9 9 9 7 7 6 4 4 5 6 7 7 8 9 8 10 11 12 14 14 13 9 3 2 1 2 2 5 14 15 8 9 12 14 17 21 23 22 22 22 22 22 22 22 22 23 24 24 24 24 24 24 23 23 23 23 22 23 24 24 20 17 16 17 16 20 25 28 29 30 29 27 27 27 27 26 24 23 24 25 26
11 10 10 10 9 9 7 6 6 6 5 6 7 8 8 9 11 11 11 11 10 11 12 13 15 13 8 3 1 2 1 5 11 8 7 10 10 14 19 22 23 21 22 23 22 22 23 23 23 23 24 25 26 27 26 26 26 25 25 25 24 22 22 23 22 18 19 21 18 15 17 24 30 31 30 30 29 28 28 29 28 25 24 25 26
11 11 10 10 9 8 8 7 7 8 7 8 9 9 11 12 12 12 13 11 9 11 12 12 14 16 15 12 8 7 4 6 5 3 9 9 5 13 19 22 23 19 22 25 23 22 23 23 23 23 25 26 28 29 28 28 27 26 26 26 26 24 23 23 22 20 19 22 19 13 12 15 25 32 32 31 31 31 30 30 30 28 26 25 27
11 10 10 9 9 9 8 8 9 10 9 9 11 12 14 15 14 14 15 13 11 14 16 13 13 15 16 16 15 15 13 11 5 3 6 4 6 13 16 20 21 17 22 25 23 22 23 23 23 24 27 28 29 30 30 29 27 26 26 26 27 26 25 23 22 20 18 22 22 15 13 12 13 23 32 32 31 32 33 32 31 30 28 27 27
10 10 9 9 9 8 8 9 11 11 10 11 13 14 16 17 17 17 17 17 16 17 20 18 17 17 15 14 15 15 17 17 14 8 3 4 8 11 16 23 19 15 20 25 23 21 22 23 23 26 28 29 30 31 30 30 29 28 27 27 28 27 26 24 22 21 19 21 23 19 16 14 12 14 21 28 32 35 34 33 33 32 31 30 29
10 10 10 9 9 9 9 11 12 13 13 14 15 16 17 18 19 19 19 20 20 19 22 22 21 19 17 16 16 16 17 19 21 17 8 4 6 7 19 27 20 16 20 24 23 19 19 22 24 27 28 30 33 33 32 32 31 30 30 29 29 28 26 25 22 21 20 21 22 20 18 17 15 14 15 17 24 34 38 37 35 34 34 33 32
11 11 11 11 10 11 11 13 14 14 15 16 17 18 19 20 20 20 20 21 22 22 23 23 23 22 20 20 20 19 16 16 20 19 12 7 6 7 15 20 18 20 22 24 22 19 18 21 25 27 28 31 35 35 34 34 32 31 30 30 31 29 28 26 24 23 22 21 22 21 19 19 19 17 16 15 15 22 33 40 39 36 36 36 35
12 12 12 12 12 13 14 15 16 16 17 18 19 20 20 20 20 19 20 21 22 23 24 23 23 23 23 23 23 21 17 13 14 16 11 7 6 6 12 17 16 18 22 24 21 18 17 22 27 26 26 32 36 36 36 35 33 32 30 30 32 32 30 28 27 25 24 22 22 21 20 20 20 19 18 16 15 16 21 33 39 38 36 37 37
13 13 13 13 13 15 16 16 17 18 19 20 20 20 20 19 19 20 21 22 22 22 24 23 23 23 23 23 22 21 20 16 14 15 13 9 8 5 11 17 13 13 20 23 20 17 14 22 28 23 26 35 36 36 37 35 35 34 31 31 33 34 32 31 30 29 27 24 23 22 22 21 20 19 19 18 16 15 15 21 33 39 39 36 37
14 15 15 14 15 16 17 18 19 19 20 20 20 19 19 19 21 22 23 23 22 22 23 23 22 22 22 21 21 21 20 18 16 16 15 14 12 9 11 14 9 12 19 19 18 16 11 22 29 21 26 36 36 37 38 35 37 35 32 32 34 35 34 33 33 32 30 27 25 23 22 22 21 20 19 18 18 15 14 15 23 34 41 39 37
16 16 16 16 17 18 18 19 20 20 20 20 19 19 19 21 22 23 24 23 22 22 22 21 21 21 21 22 23 22 20 18 17 17 17 17 16 13 13 14 9 10 15 15 17 16 12 24 28 20 28 37 36 38 38 36 37 35 32 33 35 35 34 34 33 33 32 29 26 25 24 23 22 21 20 19 18 16 14 13 16 24 35 42 42
17 17 17 17 19 19 19 20 20 20 20 19 19 19 20 22 22 23 23 21 21 22 22 22 22 23 23 23 23 22 20 19 18 17 17 16 17 16 14 11 6 6 9 11 15 16 16 28 27 21 30 37 36 37 36 36 37 34 32 33 35 35 34 34 33 32 32 30 28 27 25 25 24 23 21 20 19 17 16 14 14 17 25 35 43
17 17 17 18 19 19 20 21 21 20 20 19 20 20 20 21 22 22 23 22 22 24 24 25 25 24 24 23 22 21 18 17 17 16 16 14 14 16 16 12 7 6 7 7 11 13 19 29 27 25 33 37 36 37 35 35 36 33 33 34 34 35 34 34 32 31 31 31 30 29 27 26 25 24 23 21 20 19 17 16 14 15 17 23 36
17 18 18 18 19 20 21 22 21 21 21 20 20 19 19 21 21 22 23 23 24 26 25 26 26 25 24 23 21 20 18 17 17 15 15 14 14 14 15 14 10 6 6 6 8 10 21 29 25 29 37 37 36 37 35 34 34 32 33 35 34 35 35 34 33 32 32 32 31 31 30 28 25 25 24 22 21 20 19 17 16 15 15 16 24
17 18 18 19 19 20 21 22 21 21 21 20 19 19 19 21 22 22 23 23 26 27 25 25 25 25 25 24 22 22 21 21 20 18 16 15 15 14 14 14 11 8 6 7 7 11 23 29 27 31 38 38 37 36 35 34 34 33 34 35 36 36 35 34 35 34 33 32 32 32 32 30 28 26 25 23 22 21 20 18 17 17 15 15 17
18 18 18 19 20 20 21 22 21 21 21 20 19 19 20 21 22 23 22 23 26 27 26 25 25 25 25 25 24 24 24 24 23 22 20 18 16 16 14 13 12 10 8 8 7 11 21 27 29 33 35 37 38 36 36 36 35 35 35 36 38 37 35 35 36 36 35 33 32 33 33 32 31 30 28 26 24 23 22 20 18 18 17 15 16
17 17 17 18 19 20 20 21 21 21 21 21 19 19 20 21 22 22 22 23 26 27 26 25 24 25 26 26 26 25 24 24 24 23 21 19 17 16 14 13 12 10 11 10 8 13 23 25 28 33 35 35 37 36 37 40 39 38 38 38 38 38 37 37 36 36 35 34 33 33 33 33 33 33 31 28 26 25 23 21 20 18 17 17 16
15 15 16 17 18 19 20 21 21 21 21 21 19 19 20 22 21 21 21 22 24 25 25 24 24 25 26 27 26 24 23 22 22 21 20 18 17 15 13 12 12 11 12 13 11 14 23 26 27 30 32 33 34 36 37 40 42 42 41 41 38 37 38 38 37 37 36 35 35 34 34 34 34 34 33 30 27 25 23 22 21 20 18 17 16
13 13 15 17 17 19 20 20 20 21 21 20 19 19 20 22 21 20 20 21 23 24 24 23 23 23 25 25 24 23 22 21 20 19 19 18 17 16 15 13 13 13 13 15 15 15 20 27 29 29 31 31 32 34 36 37 40 42 43 43 40 38 38 38 38 37 36 36 36 36 35 35 34 33 32 31 28 25 23 22 22 20 19 18 16
12 12 14 17 18 19 20 20 20 21 21 20 19 19 20 21 21 20 20 20 22 23 24 22 20 20 21 22 22 21 21 21 20 19 18 17 17 16 15 14 14 15 16 16 17 17 19 25 29 29 31 31 32 34 35 35 37 40 41 42 41 41 39 37 37 38 37 37 37 37 36 34 33 32 30 29 28 27 24 23 21 20 20 19 18
12 13 16 18 19 19 20 21 21 21 21 20 19 19 20 19 19 19 19 21 22 23 23 21 19 17 18 19 20 19 19 20 20 19 18 17 16 15 15 15 15 17 19 19 20 20 20 23 27 29 30 30 31 33 35 35 37 38 39 40 42 42 40 37 36 37 38 38 37 37 36 34 32 30 28 28 28 28 26 23 21 20 21 21 20
13 15 17 19 20 20 20 21 21 21 20 19 19 20 19 18 18 18 18 19 21 21 20 19 17 15 15 17 18 18 18 19 19 19 18 17 17 16 16 17 18 19 21 22 23 24 23 24 27 30 30 30 30 32 33 34 37 38 38 39 40 40 40 39 37 37 39 39 38 36 35 33 30 29 29 28 28 29 30 28 26 24 24 24 22
15 16 18 20 20 21 21 20 20 20 19 18 18 19 18 17 17 17 17 18 18 18 17 17 17 15 14 15 16 17 17 18 19 19 19 19 18 19 19 20 21 21 23 25 25 26 26 26 28 29 30 30 30 31 32 33 34 36 38 41 41 39 38 39 41 41 40 39 38 35 33 32 31 31 31 32 31 31 31 31 29 27 26 26 24
16 17 19 21 21 21 21 20 20 20 19 18 17 17 17 15 15 15 15 15 15 15 15 15 16 15 13 13 15 16 17 17 19 20 20 20 21 21 21 22 23 23 24 26 26 27 27 26 27 27 29 30 30 30 33 34 31 31 34 36 39 41 40 39 41 44 43 41 37 33 31 33 35 35 34 33 32 30 30 29 29 27 26 25 24
17 18 20 22 22 21 21 20 20 20 19 18 16 16 15 14 13 13 12 13 13 13 13 13 14 14 13 13 14 15 15 16 18 19 21 21 22 23 23 24 23 23 23 25 26 26 25 25 26 26 27 29 30 30 33 33 30 29 32 33 33 38 43 41 40 41 42 40 37 34 33 36 39 38 35 32 30 28 28 28 28 28 26 24 23
18 19 20 22 22 22 21 20 20 19 18 17 16 14 13 12 12 11 10 10 11 11 12 12 13 13 12 12 12 13 14 14 16 18 19 20 22 23 24 23 23 22 22 23 25 25 24 24 24 25 26 26 28 30 30 30 29 30 34 34 32 35 40 41 40 38 36 35 36 37 38 38 39 38 35 32 31 29 28 28 28 28 27 25 24
18 18 20 21 22 21 21 20 19 18 17 16 15 14 12 11 10 10 9 9 9 10 11 12 12 12 11 10 11 13 13 14 15 17 18 18 20 21 21 21 22 21 22 24 25 25 23 22 23 25 23 23 28 30 29 30 31 32 34 33 32 35 36 33 34 34 32 32 37 42 41 36 35 37 35 32 32 30 29 29 28 28 27 26 25
18 19 19 20 21 21 20 20 18 18 17 16 15 13 12 11 9 9 9 8 8 10 11 13 13 11 10 10 12 13 13 14 16 17 16 17 19 19 18 19 20 21 23 24 25 25 23 22 24 25 23 23 29 32 31 31 32 32 33 32 32 33 31 25 24 28 33 36 39 41 40 36 33 34 34 33 33 31 29 28 28 28 27 26 24
18 19 19 20 20 20 19 19 18 17 16 15 13 12 11 11 9 8 8 9 9 9 10 12 12 10 9 10 11 12 14 15 16 17 16 16 19 18 17 19 20 22 24 23 24 25 24 23 24 26 26 26 30 32 32 33 33 33 33 32 31 31 30 26 23 28 37 42 39 36 35 35 33 31 32 33 33 31 30 28 28 28 28 28 27
18 19 19 19 20 19 18 18 17 16 15 13 12 11 11 10 7 6 7 9 10 8 8 9 10 9 8 10 12 13 14 15 15 16 16 17 20 19 18 20 22 25 26 23 22 24 25 24 24 27 29 29 30 33 36 35 35 34 32 32 33 31 30 30 29 34 41 41 36 32 29 32 34 30 30 34 35 33 31 29 28 28 28 28 28
19 19 19 18 18 18 17 17 16 15 14 12 11 10 9 8 6 6 7 9 10 7 5 5 7 8 8 11 13 14 14 14 14 16 17 19 22 20 19 21 24 27 26 23 23 24 25 26 26 28 31 31 31 35 38 37 35 34 33 34 36 34 33 33 33 36 38 34 32 28 23 28 33 29 29 35 36 33 32 31 31 30 29 28 27
18 18 18 18 18 17 16 16 16 15 13 11 10 8 7 6 5 6 8 9 9 7 4 1 4 6 8 11 13 13 14 13 14 15 17 20 22 21 20 22 25 28 26 24 24 25 25 27 28 29 31 32 33 35 38 37 36 34 35 36 37 36 35 33 32 33 31 29 30 25 20 27 31 27 28 34 34 34 35 34 32 30 29 29 28
18 18 17 17 17 16 16 15 15 14 12 9 9 8 6 6 6 7 8 8 8 6 4 1 2 4 7 10 11 11 12 13 14 15 16 18 21 21 21 22 26 28 27 25 24 24 25 26 28 29 30 32 34 36 38 39 37 37 37 36 35 35 33 28 27 30 30 30 32 26 21 26 29 25 28 33 33 36 38 35 32 29 28 27 26
18 18 17 17 16 15 14 14 13 13 11 8 7 7 7 7 7 8 8 8 7 5 3 1 1 3 6 9 9 9 11 13 15 16 15 16 20 21 20 23 27 28 28 27 25 24 25 27 28 29 31 33 36 38 39 40 40 39 36 33 34 36 32 21 18 25 31 31 30 26 21 25 27 25 28 32 33 34 35 34 32 27 24 23 22
17 17 17 17 16 14 13 13 12 12 11 8 6 6 8 9 9 9 9 8 7 5 4 3 0 3 5 7 7 8 10 13 15 15 15 16 19 20 20 23 26 28 28 28 28 27 28 29 31 31 33 36 38 40 41 42 42 40 36 33 35 36 31 22 19 26 30 28 28 27 23 24 27 26 26 28 29 29 29 28 26 23 22 23 24
17 17 18 18 16 14 13 12 11 10 10 9 7 7 8 10 11 10 10 8 7 6 5 4 1 3 4 5 6 8 9 12 13 12 14 16 18 18 20 22 24 26 27 27 28 29 31 33 34 35 36 38 40 41 43 43 43 42 39 38 38 36 31 29 30 26 19 19 30 33 26 25 28 27 23 18 17 19 21 20 21 24 28 28 25
Wind_Direction
245 240 232 220 209 187 122 66 21 338 349 36 43 41 23 359 342 343 344 338 337 333 332 332 334 339 337 331 326 331 338 346 351 338 325 320 315 313 311 305 300 301 301 298 289 281 276 274 278 279 280 281 279 284 285 284 281 273 275 274 273 273 267 254 240 238 243 245 238 227 229 236 234 227 225 223 215 214 222 232 230 219 215 215 212
229 221 208 205 203 206 220 227 239 260 258 305 6 20 7 353 347 354 356 350 346 341 338 335 336 342 343 338 332 335 339 342 344 339 329 320 318 317 313 309 307 307 302 298 294 287 278 276 281 280 281 282 272 273 278 278 278 272 271 272 270 271 271 265 252 239 242 246 236 229 231 233 235 230 229 229 222 217 217 225 232 223 216 216 215
209 210 199 197 204 206 215 217 217 224 233 273 360 12 358 345 347 357 355 350 346 342 339 336 338 346 349 347 342 340 339 340 341 338 332 324 320 316 313 312 310 310 307 301 298 291 284 285 288 284 284 287 280 274 271 271 276 269 264 271 270 268 269 269 262 244 239 244 238 233 234 234 236 235 234 232 226 222 218 218 227 228 220 217 215
208 208 204 210 217 215 216 211 202 194 184 360 356 355 349 337 341 355 346 341 340 337 338 336 336 342 349 350 346 342 337 334 335 333 331 329 324 318 315 315 315 314 312 309 304 297 292 291 290 287 284 285 287 289 278 268 273 267 257 265 269 267 266 266 266 256 240 239 240 238 238 235 235 239 239 237 229 225 222 217 221 228 225 219 215
215 214 220 229 231 228 221 208 200 198 191 333 328 323 308 293 307 347 346 344 346 348 346 343 340 342 344 343 342 339 335 332 330 327 328 330 331 328 325 325 327 326 323 320 315 308 301 298 296 296 291 283 286 292 286 278 276 270 259 261 265 264 265 265 265 262 246 235 238 240 242 238 236 239 241 240 234 228 226 220 218 223 227 222 216
224 226 230 235 238 228 210 203 205 203 208 318 308 305 284 285 323 347 349 345 344 345 340 340 343 344 342 339 336 334 332 333 331 330 329 331 333 335 337 337 337 335 333 331 327 322 316 312 308 307 302 294 292 291 290 292 283 273 271 269 261 256 259 263 262 261 251 238 236 239 243 243 236 235 237 240 238 231 228 225 219 219 225 224 217
227 229 231 235 235 216 200 197 186 188 339 326 308 315 312 319 335 343 342 335 333 336 333 335 338 341 341 338 336 334 333 333 332 334 334 337 342 346 347 345 343 339 337 337 336 335 331 326 321 318 315 310 307 302 297 299 292 279 279 277 267 256 254 258 259 260 258 247 239 237 241 244 238 233 233 236 239 235 230 228 223 217 220 224 218
226 225 227 231 224 199 197 198 129 25 346 330 318 325 333 336 341 341 338 331 330 334 336 337 337 337 337 335 338 339 337 337 336 339 343 347 352 354 352 349 347 347 345 344 341 340 338 335 331 327 325 321 318 314 308 303 299 292 285 279 273 262 253 252 256 259 260 255 245 237 238 243 241 234 232 233 237 238 232 228 226 219 218 222 219
221 220 215 208 189 169 169 154 120 48 11 340 337 343 344 347 345 339 338 336 337 342 346 345 340 335 332 334 340 343 344 351 355 0 4 2 357 355 358 358 358 359 356 354 351 349 346 343 341 337 334 332 330 327 320 311 306 303 295 284 276 271 260 251 252 255 255 255 252 243 237 239 242 237 233 232 234 239 236 228 226 222 218 220 219
204 193 176 164 149 141 138 133 130 122 114 4 360 350 348 351 347 341 345 355 2 2 357 350 342 333 331 335 340 342 358 18 29 32 27 18 15 18 22 20 17 14 10 8 7 6 2 359 356 353 349 347 345 341 336 329 320 313 307 297 287 284 274 255 250 250 250 251 251 247 238 234 238 239 235 233 234 236 238 230 226 224 219 219 219
163 160 156 149 140 133 131 132 134 139 142 51 44 19 14 10 2 9 16 23 24 15 5 353 342 333 331 341 345 347 31 47 47 49 43 37 38 40 38 32 29 27 24 22 20 18 14 10 7 3 358 355 352 349 346 342 337 329 323 316 302 293 282 267 258 249 247 248 245 244 241 235 234 236 235 234 233 233 236 231 224 224 223 220 219
142 148 150 146 138 131 127 124 125 134 131 91 65 43 37 33 35 44 30 31 25 15 9 353 340 332 331 348 4 3 63 56 51 52 45 41 42 40 37 31 29 28 26 25 22 21 17 13 10 6 0 357 356 355 355 353 351 345 338 333 323 308 294 284 272 255 249 248 243 243 244 239 235 234 234 234 232 232 232 229 223 223 224 221 220
138 139 139 137 131 125 122 117 116 121 109 88 66 53 48 44 51 46 31 31 28 19 10 358 351 345 337 339 352 353 146 40 45 45 35 31 31 30 28 24 21 19 17 16 17 19 19 16 14 12 9 5 2 2 4 5 6 2 354 348 344 335 321 306 289 273 263 254 244 243 241 238 238 237 236 235 233 232 230 227 224 223 223 222 221
132 131 127 125 124 121 118 115 116 112 99 82 65 59 58 49 46 45 42 41 39 28 15 12 9 353 332 329 341 339 271 304 23 27 24 23 19 21 22 19 16 12 8 7 11 17 20 19 15 14 15 14 13 12 13 17 18 17 11 1 355 351 347 338 324 307 287 266 250 243 241 238 237 238 240 238 234 233 230 227 226 223 222 223 221
127 127 122 120 121 121 118 116 113 101 92 85 73 64 52 46 41 45 51 51 51 40 29 31 20 353 319 326 353 345 314 328 346 354 13 21 11 17 19 16 12 6 3 4 9 16 22 21 12 8 11 13 16 17 18 20 21 19 14 6 0 358 358 355 347 334 315 290 265 251 246 242 239 238 240 239 235 233 232 228 226 225 224 224 223
125 125 124 123 120 119 117 113 104 93 91 87 75 63 51 46 42 42 48 53 57 51 42 43 37 25 6 293 309 358 345 353 338 331 1 21 10 14 13 11 8 1 3 7 11 16 20 21 14 4 3 5 7 9 11 11 11 11 10 8 5 1 1 2 354 339 337 335 307 274 257 246 241 241 241 239 237 235 234 231 229 227 226 226 224
125 124 124 123 118 115 110 104 99 93 89 81 74 67 57 51 46 44 50 57 64 60 54 50 50 54 55 42 327 360 316 332 336 319 335 351 4 11 3 5 7 2 3 7 11 15 15 16 14 5 358 358 360 360 1 2 2 4 5 6 6 2 360 2 0 348 345 353 345 316 282 252 239 240 240 238 238 235 234 233 231 229 226 226 225
124 123 121 119 115 111 107 103 99 93 89 83 78 71 63 59 53 52 57 60 63 62 59 58 60 62 65 72 68 50 19 341 344 298 321 328 350 356 350 358 4 2 2 4 7 13 12 10 10 6 359 355 356 356 357 358 359 1 2 3 4 2 360 359 360 354 350 359 356 339 323 278 246 241 241 239 237 236 234 232 231 230 227 225 225
120 117 114 112 109 107 102 98 95 93 92 86 79 74 70 68 64 63 64 61 61 63 59 58 62 61 65 73 67 57 49 37 34 320 320 318 330 339 343 354 1 1 359 360 5 9 8 8 6 3 359 356 356 355 356 357 358 359 360 0 360 358 358 356 355 352 348 359 0 347 343 333 282 256 249 241 236 237 237 231 229 230 228 225 224
114 111 107 106 103 99 94 92 95 95 93 86 82 80 78 76 71 69 69 66 67 70 66 62 60 57 58 62 58 53 50 46 40 24 350 304 320 333 340 344 353 6 358 355 2 6 5 6 3 359 359 359 358 358 358 358 359 1 0 359 357 355 356 355 351 350 345 351 359 352 345 345 333 301 270 250 238 236 237 234 229 228 227 225 224
108 105 102 100 97 97 97 97 99 96 92 87 86 85 82 78 74 73 75 75 76 78 74 70 65 60 56 53 47 43 41 38 33 30 30 348 332 333 338 340 345 355 356 355 360 6 6 2 358 359 1 359 359 360 360 0 1 2 0 357 355 354 355 354 349 347 344 345 352 353 348 345 339 332 314 282 254 241 236 235 232 229 227 226 224
104 100 97 97 98 102 103 102 101 97 92 89 89 87 82 80 80 81 83 83 82 82 79 76 72 66 61 56 50 42 36 31 26 26 28 15 350 328 335 340 332 331 347 357 359 5 7 360 358 1 1 357 358 360 360 1 1 359 356 354 355 355 354 354 350 346 343 343 347 349 347 344 338 333 328 316 291 262 245 238 235 231 227 226 224
102 98 96 99 102 104 104 102 99 95 92 90 89 87 86 86 86 87 87 87 87 85 81 78 74 70 67 64 62 58 54 46 34 30 32 16 347 324 327 330 316 312 336 352 358 7 6 358 1 2 356 355 358 359 358 358 359 357 354 351 353 356 356 354 350 346 343 341 342 345 346 342 335 332 330 323 310 292 265 246 237 232 228 226 225
103 99 100 104 106 105 104 101 97 94 94 92 91 91 91 90 87 88 89 89 88 84 79 76 72 71 70 68 67 65 62 57 50 44 40 23 0 334 325 332 318 306 333 347 356 7 6 358 1 358 353 356 358 358 357 356 357 357 352 349 351 354 355 354 351 347 343 340 338 340 343 342 336 331 332 331 316 297 281 258 242 234 229 226 225
103 102 104 108 108 106 103 100 97 97 97 95 95 95 94 90 88 89 89 87 83 79 77 74 71 71 70 68 66 65 63 58 54 48 40 30 17 354 332 335 314 301 331 347 353 0 4 357 358 354 352 357 357 355 355 353 353 354 349 346 348 351 351 351 350 347 344 342 339 338 339 339 337 335 331 331 325 307 287 269 248 237 232 227 224
105 106 109 110 108 106 104 101 100 100 100 99 99 99 95 92 90 90 87 84 80 76 74 73 72 72 71 70 68 65 62 57 54 47 38 32 23 7 344 336 313 302 332 347 353 358 354 350 354 353 350 354 354 352 352 350 350 350 347 344 346 347 348 348 346 343 343 342 340 339 339 335 331 333 333 328 325 318 302 280 258 245 238 231 225
112 113 114 114 111 110 107 103 102 103 102 103 103 100 97 94 92 90 86 82 77 74 74 74 74 74 72 70 67 62 58 53 50 46 40 36 28 21 10 356 333 322 337 345 354 357 347 346 350 351 349 350 350 350 349 348 349 348 345 344 344 344 344 343 341 340 341 342 342 340 338 334 328 327 329 328 324 319 314 301 278 259 248 240 231
119 120 120 118 116 114 110 106 105 105 104 105 104 101 98 96 94 90 85 80 77 77 77 75 74 72 70 67 63 58 52 49 49 46 42 42 38 32 28 23 3 338 338 342 351 350 345 347 347 343 346 347 346 348 348 347 348 346 343 343 342 341 341 339 338 339 340 340 340 339 335 331 328 325 324 325 322 317 314 314 302 279 263 254 239
125 125 123 121 119 116 111 108 107 106 105 105 104 102 99 96 94 90 85 81 80 79 76 74 72 70 67 64 62 58 53 51 51 50 47 46 48 45 39 33 21 358 341 334 339 335 336 343 341 335 341 345 343 344 345 345 345 343 342 341 339 339 338 337 337 338 338 337 336 336 335 333 328 325 323 320 318 316 311 311 311 299 279 271 252
129 128 126 122 120 116 112 110 108 107 106 105 105 103 100 98 94 90 86 84 82 79 74 72 72 69 66 63 62 61 58 55 53 52 52 52 52 52 48 41 32 23 360 329 325 326 329 334 336 334 338 341 341 341 342 342 342 341 340 339 338 337 335 335 336 336 335 335 334 334 335 334 330 325 321 317 312 310 309 306 306 308 296 280 266
132 130 127 122 119 115 113 112 111 110 109 108 107 104 101 99 95 91 86 84 83 78 73 72 71 68 65 63 63 62 59 56 55 54 53 55 55 51 49 44 35 24 360 330 313 322 326 327 330 334 336 337 339 340 339 340 340 340 340 338 337 336 334 334 335 334 333 333 332 332 332 331 330 327 322 317 311 304 303 302 299 303 305 291 272
133 130 126 121 119 117 117 117 115 115 113 111 108 106 103 100 96 91 87 85 83 78 74 72 70 67 66 64 63 62 59 56 55 55 53 53 52 48 42 31 22 10 348 330 302 310 323 325 326 332 337 337 338 339 339 339 340 340 339 338 337 337 335 334 333 332 332 331 330 329 329 327 326 325 322 318 314 306 299 297 295 295 300 299 283
132 129 124 123 123 122 122 121 121 120 117 113 111 109 106 102 98 92 87 86 84 78 73 70 68 67 66 66 65 61 59 57 54 53 51 48 46 41 34 22 10 5 348 329 306 303 320 329 329 331 336 337 336 338 339 337 338 338 337 337 338 337 335 333 332 331 330 329 328 327 326 325 323 322 321 318 315 310 301 293 291 292 292 295 293
131 128 127 129 130 128 127 125 124 123 119 117 115 112 109 106 100 92 86 87 85 77 71 68 66 66 66 66 64 60 56 55 52 49 44 41 39 33 28 22 8 4 355 333 315 302 311 325 329 330 335 336 333 335 337 335 335 336 336 336 336 336 334 333 331 330 329 328 327 325 324 323 322 321 320 318 316 312 306 297 290 290 288 286 290
132 131 136 139 137 134 131 128 127 126 123 121 118 115 112 108 101 92 85 84 82 76 69 66 64 65 66 64 61 56 53 51 47 43 39 34 32 27 21 16 3 356 354 341 324 309 304 316 325 328 330 332 331 333 335 334 333 333 333 334 334 333 333 332 330 328 328 327 325 324 323 322 322 321 319 318 317 314 310 303 295 290 287 282 282
135 138 144 145 142 138 134 131 130 129 127 124 120 117 113 107 99 93 87 82 79 74 68 65 64 64 65 63 59 53 48 46 41 37 34 29 24 20 12 5 357 350 348 344 334 322 310 310 319 324 326 327 328 330 333 333 333 333 332 331 332 332 331 330 329 328 327 326 324 322 322 322 322 322 320 317 316 315 312 306 300 292 286 281 278
136 141 146 147 144 140 136 134 133 131 129 126 122 119 113 105 97 92 88 82 77 74 70 66 65 66 65 61 56 50 43 39 34 28 24 20 14 9 3 357 352 347 344 343 338 330 319 311 314 321 324 325 325 328 332 332 331 331 331 331 331 330 330 329 328 327 326 325 324 322 322 323 323 322 320 316 312 311 308 303 299 293 285 280 277
137 141 146 147 146 142 138 136 135 133 131 127 124 120 114 107 98 92 88 83 78 76 73 67 64 63 64 61 53 45 37 30 25 20 14 11 6 1 357 352 348 344 342 341 339 333 325 318 317 320 323 326 325 326 331 332 329 329 329 330 330 330 330 329 327 327 326 324 323 322 323 323 323 320 316 312 307 304 303 301 299 294 288 280 274
138 140 144 146 145 142 138 137 136 134 132 128 124 121 116 110 102 96 91 87 84 80 74 69 66 62 63 63 52 41 33 24 18 13 8 3 360 357 354 349 346 343 341 340 339 334 328 323 320 321 322 326 326 326 329 331 329 328 330 329 328 328 328 327 325 325 325 324 322 322 323 322 320 318 314 310 307 304 302 302 300 297 293 285 275
137 139 143 145 145 142 140 138 136 136 134 128 124 121 118 113 107 103 99 94 90 85 78 71 66 63 63 61 50 36 27 20 14 9 5 0 357 356 356 353 351 347 344 342 339 334 330 325 323 323 324 326 328 328 331 333 330 330 332 329 323 322 323 323 323 324 324 322 321 321 323 323 321 319 316 312 308 306 303 300 299 298 295 289 279
135 137 141 145 145 143 141 139 138 139 136 130 126 124 121 117 113 114 113 105 96 89 82 74 67 61 60 56 45 32 21 14 11 6 2 359 357 357 358 358 357 354 349 345 341 336 332 328 325 326 326 325 328 330 330 332 330 327 328 327 320 317 319 318 318 322 323 320 320 320 321 323 322 319 316 313 309 308 305 300 298 297 296 292 285
134 136 140 144 146 144 142 140 140 140 137 133 131 128 125 124 124 128 131 122 108 96 83 75 66 58 57 52 38 27 16 8 5 2 0 1 1 1 3 5 3 360 354 347 343 340 336 330 327 328 326 324 327 329 327 327 328 326 325 325 320 318 319 317 316 321 325 323 321 319 319 322 321 316 312 311 309 308 305 302 299 298 297 295 289
133 138 142 145 146 145 144 143 141 139 138 138 138 135 133 133 135 138 144 143 126 106 86 74 65 57 52 43 31 23 13 6 2 359 0 5 4 4 8 10 8 4 357 349 345 344 339 332 330 330 326 324 326 328 327 326 328 326 324 323 320 318 319 318 316 319 323 324 321 315 314 319 319 312 308 308 307 306 303 301 301 300 300 298 293
135 140 144 145 145 146 146 143 141 140 139 141 145 146 144 143 140 136 146 158 146 117 91 73 63 53 41 29 25 19 11 7 1 357 360 3 3 4 7 7 7 6 2 356 350 347 342 336 333 332 329 326 325 328 328 327 327 325 323 322 320 317 314 314 314 313 317 322 319 309 308 316 315 306 303 305 304 302 301 300 301 300 299 299 295
138 140 142 143 144 145 146 144 141 140 141 145 152 155 155 154 152 144 149 163 158 130 98 74 54 40 26 19 19 16 12 8 2 1 3 2 1 2 2 2 3 3 2 1 359 355 350 343 336 333 334 331 326 327 330 329 326 325 324 323 320 315 313 315 313 311 314 319 316 305 303 311 311 304 301 303 302 301 300 299 299 299 297 295 293
139 139 140 142 142 143 146 144 142 142 143 149 158 161 159 158 159 155 155 163 164 151 122 76 42 23 12 10 8 6 8 9 7 10 11 5 2 0 359 360 1 0 1 2 2 0 357 353 345 338 340 339 331 330 333 333 329 326 324 322 319 316 315 314 312 310 313 317 315 308 303 306 309 306 301 302 304 303 301 298 298 297 295 292 290
138 138 138 141 142 144 146 146 145 143 144 150 160 164 163 160 159 157 158 165 171 173 168 94 18 3 360 2 359 358 4 11 14 14 11 6 3 360 358 358 357 357 0 2 2 360 358 357 352 347 346 346 341 338 338 337 334 331 328 324 320 318 316 315 315 315 317 321 319 312 301 305 310 308 303 303 305 303 301 299 297 295 293 292 289
136 135 135 137 139 142 148 153 152 147 145 156 168 175 178 174 169 164 162 168 176 183 188 214 347 345 350 354 354 357 6 14 17 13 8 4 1 359 359 357 354 354 358 1 0 359 359 359 357 354 353 353 350 348 346 344 340 337 333 329 326 325 322 320 320 322 323 325 324 315 302 303 311 309 304 304 304 303 302 301 299 296 295 294 292
136 135 132 131 133 137 144 151 153 147 145 158 175 184 189 186 178 171 165 165 166 168 167 145 360 344 352 356 360 5 10 17 17 11 5 2 359 360 1 357 353 354 356 357 357 358 359 360 359 359 359 359 357 354 352 349 346 343 338 331 329 330 328 323 321 323 324 324 325 323 310 303 309 309 304 305 303 299 299 299 300 301 302 302 298
140 135 131 127 127 130 134 138 141 138 136 143 161 176 182 182 180 173 166 161 156 151 151 155 110 354 5 12 16 16 14 17 15 9 6 1 358 1 3 357 354 355 356 355 355 356 359 0 3 4 4 3 360 356 354 353 351 349 343 334 332 332 329 327 322 320 320 322 327 329 317 306 309 309 306 306 302 296 294 295 299 302 302 302 299
149 140 133 128 126 126 127 128 130 129 127 129 140 155 164 171 176 174 169 167 160 154 156 161 86 21 32 36 30 25 19 17 14 8 6 2 359 2 3 359 356 355 354 355 357 358 359 1 3 4 3 3 1 357 356 355 353 351 347 341 339 336 331 329 325 322 318 321 330 332 322 311 312 311 309 310 304 300 300 297 299 302 302 302 301